Precipitable_Water
1.17 1.21 1.74 2.28 2.28 2.06 1.83 1.67 1.60 1.61 1.66 1.64 1.61 1.56 1.53 1.55 1.60 1.54 1.56 1.60 1.52 1.50 1.47 1.42 1.37 1.38 1.37 1.53 1.64 1.57 1.50 1.52 1.42 1.60 1.79 1.98 1.96 1.96 2.05 2.15 2.15 2.16 2.18
1.43 1.54 1.76 2.14 2.05 2.04 2.09 1.87 1.75 1.71 1.74 1.68 1.68 1.63 1.59 1.70 1.77 1.69 1.57 1.55 1.43 1.33 1.31 1.29 1.30 1.36 1.36 1.48 1.46 1.45 1.45 1.50 1.49 1.44 1.65 1.79 1.88 1.99 2.00 1.94 2.00 2.04 2.07
1.65 1.71 1.72 1.88 1.96 1.82 1.83 1.94 1.90 1.77 1.83 1.85 1.90 1.81 1.76 1.72 1.88 1.84 1.63 1.50 1.41 1.34 1.34 1.29 1.28 1.32 1.24 1.37 1.40 1.43 1.46 1.49 1.52 1.50 1.52 1.69 1.79 1.85 1.82 1.91 1.88 1.86 1.89
1.88 1.77 1.76 1.72 1.50 1.43 1.47 1.56 1.65 1.83 1.90 2.00 2.01 2.03 2.03 1.92 1.87 1.90 1.70 1.50 1.44 1.41 1.39 1.37 1.42 1.39 1.31 1.32 1.33 1.42 1.47 1.47 1.41 1.41 1.46 1.53 1.66 1.79 1.83 1.72 1.68 1.75 1.67
1.67 1.81 1.43 1.35 1.40 1.43 1.42 1.57 1.66 1.86 1.87 1.93 1.85 2.01 2.15 1.97 1.82 1.85 1.75 1.53 1.48 1.46 1.43 1.39 1.40 1.47 1.41 1.42 1.38 1.39 1.48 1.43 1.43 1.37 1.31 1.41 1.47 1.51 1.52 1.61 1.58 1.56 1.57
1.81 1.80 1.69 1.60 1.45 1.50 1.52 1.54 1.66 1.77 1.83 1.83 1.75 1.72 1.86 1.76 1.75 1.83 1.86 1.69 1.60 1.54 1.42 1.43 1.44 1.49 1.49 1.46 1.49 1.43 1.37 1.29 1.29 1.29 1.29 1.25 1.29 1.40 1.45 1.42 1.42 1.36 1.25
1.45 1.52 1.51 1.43 1.42 1.44 1.49 1.54 1.61 1.77 1.91 1.87 1.79 1.59 1.72 1.78 1.81 1.91 1.91 1.84 1.69 1.61 1.56 1.50 1.45 1.48 1.48 1.48 1.48 1.47 1.41 1.43 1.45 1.41 1.28 1.25 1.22 1.28 1.39 1.38 1.41 1.35 1.34
1.49 1.42 1.39 1.40 1.40 1.42 1.42 1.45 1.53 1.59 1.68 1.85 1.80 1.63 1.55 1.53 1.63 1.89 1.90 1.86 1.76 1.68 1.65 1.57 1.56 1.52 1.52 1.52 1.49 1.46 1.43 1.40 1.44 1.47 1.52 1.47 1.49 1.45 1.43 1.41 1.40 1.44 1.47
1.42 1.44 1.49 1.48 1.42 1.39 1.34 1.35 1.47 1.55 1.57 1.62 1.67 1.73 1.75 1.62 1.72 1.84 1.80 1.83 1.85 1.76 1.69 1.66 1.69 1.68 1.65 1.60 1.53 1.49 1.46 1.38 1.48 1.52 1.56 1.61 1.70 1.55 1.48 1.44 1.31 1.27 1.25
1.33 1.36 1.44 1.48 1.43 1.41 1.40 1.38 1.43 1.48 1.50 1.57 1.63 1.70 1.71 1.71 1.84 1.84 1.87 1.74 1.72 1.78 1.76 1.76 1.78 1.72 1.75 1.80 1.61 1.59 1.45 1.39 1.39 1.39 1.45 1.49 1.50 1.54 1.58 1.53 1.40 1.24 1.27
1.34 1.31 1.29 1.34 1.37 1.42 1.45 1.46 1.47 1.47 1.51 1.54 1.57 1.65 1.73 1.86 1.85 1.84 1.81 1.77 1.68 1.66 1.65 1.56 1.63 1.74 1.75 1.78 1.81 1.65 1.63 1.64 1.54 1.49 1.40 1.38 1.41 1.40 1.35 1.40 1.45 1.41 1.32
1.09 1.12 1.15 1.13 1.15 1.15 1.30 1.43 1.47 1.49 1.45 1.48 1.54 1.56 1.66 1.77 1.91 1.90 1.86 1.82 1.78 1.69 1.64 1.67 1.64 1.69 1.67 1.65 1.70 1.76 1.73 1.68 1.58 1.57 1.54 1.37 1.31 1.32 1.38 1.38 1.46 1.47 1.50
0.96 0.95 0.99 1.06 1.04 1.08 1.07 1.07 1.09 1.25 1.31 1.37 1.41 1.45 1.54 1.67 1.72 1.78 1.75 1.78 1.70 1.70 1.74 1.74 1.75 1.73 1.72 1.75 1.72 1.71 1.67 1.64 1.58 1.52 1.56 1.54 1.47 1.42 1.55 1.48 1.47 1.48 1.43
0.92 0.92 0.92 0.91 0.92 0.98 1.03 1.06 1.01 1.02 1.02 1.03 1.08 1.09 1.21 1.37 1.53 1.62 1.63 1.56 1.51 1.49 1.51 1.56 1.62 1.69 1.76 1.75 1.76 1.75 1.69 1.65 1.64 1.58 1.58 1.68 1.67 1.59 1.54 1.54 1.42 1.40 1.31
0.85 0.87 0.86 0.87 0.88 0.86 0.87 0.88 0.92 0.95 0.96 0.92 1.03 1.10 1.10 1.09 1.14 1.22 1.23 1.22 1.20 1.19 1.15 1.15 1.18 1.24 1.27 1.31 1.36 1.38 1.45 1.55 1.59 1.68 1.67 1.68 1.58 1.54 1.52 1.56 1.53 1.51 1.40
0.65 0.69 0.71 0.73 0.73 0.73 0.72 0.72 0.90 0.97 0.95 0.97 0.98 1.00 1.04 1.12 1.15 1.14 1.13 1.12 1.11 1.12 1.10 1.06 1.07 1.09 1.08 1.12 1.14 1.20 1.24 1.34 1.50 1.63 1.59 1.50 1.40 1.38 1.34 1.35 1.37 1.45 1.42
0.63 0.65 0.66 0.65 0.63 0.62 0.65 0.64 0.70 0.91 0.96 0.95 0.97 0.99 0.99 0.96 0.95 0.95 0.94 0.94 0.96 0.96 0.94 0.96 0.98 1.04 1.07 1.12 1.15 1.17 1.17 1.26 1.35 1.30 1.26 1.27 1.25 1.22 1.19 1.14 1.16 1.24 1.33
0.65 0.65 0.66 0.69 0.70 0.71 0.71 0.70 0.63 0.63 0.65 0.72 0.91 0.97 1.02 0.99 0.96 0.95 0.93 0.92 0.86 0.87 0.84 0.82 0.84 0.92 0.99 1.03 1.12 1.17 1.21 1.27 1.28 1.30 1.29 1.28 1.25 1.21 1.17 1.13 1.12 1.10 1.15
0.63 0.65 0.70 0.73 0.75 0.75 0.76 0.77 0.78 0.75 0.73 0.75 0.84 0.94 1.00 0.96 0.95 0.92 0.88 0.81 0.80 0.83 0.85 0.85 0.88 0.88 0.89 0.95 1.02 1.12 1.21 1.24 1.28 1.32 1.34 1.33 1.33 1.31 1.25 1.23 1.21 1.16 1.13
0.62 0.63 0.65 0.67 0.66 0.63 0.69 0.69 0.67 0.72 0.77 0.79 0.78 0.78 0.84 0.83 0.78 0.80 0.79 0.79 0.79 0.77 0.80 0.79 0.84 0.87 0.91 0.94 0.99 1.05 1.14 1.23 1.27 1.33 1.36 1.39 1.42 1.40 1.33 1.29 1.27 1.20 1.19
0.64 0.64 0.62 0.61 0.60 0.61 0.61 0.63 0.62 0.60 0.60 0.64 0.69 0.76 0.76 0.75 0.74 0.78 0.75 0.78 0.78 0.79 0.79 0.82 0.83 0.84 0.87 0.93 0.95 0.99 1.05 1.12 1.22 1.28 1.33 1.37 1.36 1.33 1.37 1.38 1.34 1.33 1.32
0.64 0.63 0.60 0.59 0.60 0.59 0.59 0.63 0.67 0.63 0.61 0.59 0.62 0.70 0.76 0.77 0.76 0.74 0.77 0.81 0.86 0.89 0.89 0.88 0.88 0.90 0.94 0.97 1.00 1.01 0.99 1.03 1.13 1.23 1.27 1.32 1.34 1.35 1.35 1.34 1.33 1.34 1.31
0.65 0.61 0.61 0.57 0.56 0.59 0.59 0.60 0.62 0.64 0.66 0.65 0.67 0.68 0.66 0.71 0.77 0.78 0.80 0.85 0.89 0.92 0.97 0.94 0.93 0.93 0.97 1.00 1.05 1.06 1.07 1.08 1.13 1.21 1.25 1.28 1.29 1.32 1.31 1.28 1.32 1.32 1.32
0.63 0.57 0.54 0.52 0.54 0.57 0.60 0.60 0.62 0.65 0.68 0.69 0.68 0.70 0.69 0.69 0.67 0.68 0.75 0.84 0.88 0.92 0.96 0.96 0.97 0.98 0.99 0.99 0.98 1.00 1.04 1.12 1.17 1.17 1.19 1.20 1.21 1.25 1.26 1.28 1.30 1.32 1.32
0.70 0.64 0.57 0.52 0.49 0.57 0.60 0.61 0.63 0.65 0.66 0.71 0.74 0.75 0.74 0.72 0.71 0.71 0.74 0.79 0.83 0.89 0.94 1.00 0.99 1.00 1.06 1.05 1.04 1.03 1.01 0.98 1.10 1.19 1.18 1.15 1.12 1.19 1.18 1.20 1.21 1.27 1.27
0.80 0.76 0.68 0.63 0.54 0.60 0.63 0.62 0.63 0.64 0.66 0.69 0.74 0.78 0.79 0.76 0.74 0.73 0.74 0.79 0.81 0.85 0.93 0.91 0.91 0.97 1.02 1.06 1.08 1.12 1.12 1.02 0.99 0.99 1.10 1.19 1.15 1.12 1.14 1.15 1.18 1.20 1.20
Wind_Speed
45 48 48 30 34 35 36 35 35 34 33 31 29 27 25 24 23 22 21 20 21 20 20 20 19 18 17 17 17 17 18 17 18 18 17 16 17 18 19 19 19 20 21
35 36 34 26 30 28 32 35 35 34 35 34 32 31 29 28 27 25 23 21 21 20 19 19 18 17 16 15 14 15 15 15 15 15 14 13 15 16 17 17 16 17 18
28 30 28 30 20 20 32 27 33 36 37 37 36 35 33 31 30 28 26 23 22 21 20 19 18 17 17 16 15 15 14 14 14 14 14 13 14 14 14 16 17 17 17
23 19 24 15 16 16 18 28 36 38 35 39 37 35 34 32 32 31 28 25 23 22 21 20 19 19 18 17 16 16 15 15 14 14 14 15 14 14 15 15 15 16 16
18 19 16 15 13 18 13 14 17 17 28 30 30 34 37 34 31 31 29 27 25 24 22 21 20 20 19 18 17 17 17 16 15 15 15 15 15 15 16 16 16 16 17
11 13 16 14 16 13 14 14 16 16 19 20 22 21 28 31 32 32 31 28 27 25 24 23 22 21 21 20 19 17 17 17 17 17 16 17 17 18 17 18 17 17 17
8 8 7 9 9 10 12 12 14 18 21 21 20 18 19 27 27 29 31 30 29 27 26 25 24 23 22 21 20 20 20 19 19 18 18 18 18 19 19 18 18 18 18
4 5 6 7 9 10 10 12 14 16 19 21 21 22 22 24 24 27 29 30 29 29 28 26 26 25 24 23 22 21 21 21 20 20 20 20 19 19 20 20 20 20 19
2 3 4 5 7 9 10 9 10 11 15 17 18 21 24 25 25 25 27 26 29 28 29 27 27 27 27 26 25 24 23 22 21 22 22 21 21 20 20 20 20 19 20
2 2 3 4 5 6 8 8 8 10 11 14 15 18 19 23 23 23 26 27 32 29 28 29 30 29 29 28 27 26 25 25 24 23 23 23 23 23 22 23 23 22 22
1 2 3 4 5 5 6 7 9 9 10 11 12 13 16 18 20 21 21 23 23 26 29 30 30 31 30 30 29 29 29 29 28 27 26 25 25 25 25 25 25 25 24
1 1 2 3 4 4 5 5 7 9 11 13 13 15 16 16 18 18 21 23 23 23 27 28 31 32 32 32 32 32 32 32 31 30 29 28 27 27 28 28 27 27 26
2 3 3 4 5 5 4 5 5 7 9 12 12 12 14 16 17 17 17 19 20 24 26 27 30 33 36 36 36 37 36 38 37 34 33 32 31 30 29 29 29 28 27
4 6 6 6 7 7 7 7 7 6 8 9 12 13 14 16 16 17 17 19 20 22 24 26 28 31 34 36 36 38 38 40 39 40 38 36 34 32 32 32 31 31 30
6 7 8 8 8 8 9 10 10 10 10 10 11 13 14 16 17 19 20 21 23 24 26 27 30 32 33 34 36 36 36 37 39 42 42 39 37 36 36 35 35 33 32
6 6 7 7 7 8 9 10 9 10 10 11 11 12 13 15 17 19 21 22 23 24 25 27 28 29 31 34 36 36 36 36 35 35 37 38 39 38 38 37 38 38 36
7 7 7 8 8 8 9 9 10 10 11 13 13 14 15 16 17 19 20 21 21 22 24 26 27 29 29 30 33 35 35 36 36 37 38 38 38 38 38 37 38 39 38
8 8 7 7 7 9 10 11 12 13 14 14 15 16 17 17 18 19 20 22 22 23 24 25 26 28 29 30 30 32 33 34 35 36 37 37 36 36 36 36 36 38 39
7 8 8 9 10 11 11 12 13 14 16 17 17 17 18 20 21 21 22 22 23 24 25 25 26 28 28 30 31 31 32 34 35 35 35 36 35 35 35 36 36 37 38
9 10 11 12 13 14 14 14 14 15 15 16 18 19 20 21 22 23 24 25 25 26 27 27 27 27 28 29 30 31 32 32 33 34 36 36 35 35 35 35 35 35 36
11 12 13 13 14 15 15 16 16 16 18 20 21 22 22 23 24 25 26 26 26 27 28 28 28 28 28 28 28 29 31 32 33 34 34 34 35 35 36 36 36 35 35
14 15 16 17 18 18 19 19 19 19 19 19 20 21 22 24 25 25 26 26 26 27 27 28 28 27 27 26 25 25 27 29 31 33 34 35 35 35 35 35 35 35 36
17 18 19 20 21 21 21 21 21 21 21 22 22 22 23 24 25 26 27 27 27 27 27 27 26 25 23 24 24 24 22 22 25 27 31 33 34 35 35 35 35 34 35
19 21 23 24 24 24 25 25 25 25 24 24 24 24 24 25 26 27 28 28 27 27 26 25 24 24 23 22 21 22 23 22 21 20 21 24 26 29 30 33 35 35 36
22 24 25 26 27 27 28 28 28 27 27 27 28 27 27 27 27 27 27 27 27 26 25 24 24 23 23 22 21 19 18 18 19 20 20 19 18 18 19 22 23 23 28
25 26 27 27 28 28 29 29 29 29 30 29 29 29 28 28 27 27 25 25 24 23 23 23 23 23 22 21 20 19 18 16 14 15 16 17 17 17 16 15 16 17 18
Wind_Direction
247 249 243 239 227 231 232 234 236 236 238 240 241 243 243 242 242 241 242 243 242 244 244 245 246 248 250 251 253 256 256 257 260 264 269 260 252 248 250 256 260 255 254
248 238 220 230 221 231 234 234 236 238 240 241 242 243 243 242 242 241 239 241 241 239 240 241 242 243 245 246 252 254 258 258 258 259 262 261 252 251 250 252 254 255 256
238 215 218 242 230 237 239 235 235 241 242 242 242 242 242 241 242 240 237 237 236 235 237 238 238 240 243 246 249 255 257 258 259 258 258 257 255 253 252 254 255 255 257
200 204 217 253 240 242 260 253 245 243 244 240 241 243 240 241 240 236 234 234 232 233 235 237 238 240 243 246 249 253 255 256 257 258 257 256 254 255 252 254 256 256 256
201 215 233 250 251 254 266 260 247 246 239 234 243 244 238 236 236 234 233 232 231 232 234 237 238 240 241 246 252 253 254 256 257 258 258 257 256 255 255 256 255 258 258
217 245 250 253 245 251 253 263 237 238 228 233 243 250 231 232 234 228 230 231 231 231 233 236 238 241 243 247 249 251 253 254 257 258 259 258 258 257 257 256 256 258 261
220 237 231 235 238 243 250 252 249 242 236 242 243 243 230 221 225 230 230 232 232 232 234 236 239 241 243 246 247 251 255 257 259 259 258 258 260 258 256 255 255 256 259
199 231 248 246 244 249 256 254 251 245 243 239 240 235 232 226 233 234 235 235 233 236 236 238 240 242 243 244 248 251 254 257 259 260 259 261 261 259 256 256 255 255 258
218 240 254 251 256 257 259 256 250 241 237 230 239 239 232 232 237 236 236 235 235 238 238 239 242 244 245 245 247 250 254 257 259 260 260 262 260 258 256 256 254 254 258
237 272 281 283 281 273 256 251 246 240 231 235 239 236 232 232 235 237 239 243 239 241 244 244 245 246 247 246 247 250 254 256 258 259 259 260 260 258 256 256 256 256 259
294 301 307 298 295 290 276 261 249 239 235 236 236 239 235 236 242 241 238 239 241 241 244 246 246 246 249 249 249 253 254 257 257 258 260 261 260 258 258 258 258 257 258
313 318 307 327 325 324 304 283 264 253 250 254 248 250 245 247 251 247 246 247 247 251 251 251 249 247 249 251 251 254 257 257 257 258 258 259 259 259 259 258 258 257 257
298 311 303 302 307 307 313 305 291 279 267 255 257 255 249 250 252 256 252 250 258 258 254 256 255 254 253 256 256 257 258 257 256 255 259 258 258 260 260 259 257 257 257
285 292 296 296 293 292 289 287 289 287 281 274 264 260 257 255 258 260 259 258 261 263 263 262 262 260 258 259 260 258 262 258 255 253 256 258 258 259 257 258 257 255 255
283 288 292 288 286 289 289 286 276 276 278 277 273 266 263 264 264 267 270 270 271 271 269 268 267 264 263 262 261 262 261 258 258 254 253 255 256 258 258 257 255 254 253
288 296 299 295 293 290 289 291 280 274 279 279 276 274 273 268 269 273 275 278 278 277 273 272 272 271 269 265 263 262 261 258 256 254 251 253 257 257 258 257 254 251 252
287 293 298 295 294 292 292 288 284 281 282 282 280 278 278 277 278 280 282 283 282 280 278 276 274 273 274 271 267 263 261 259 257 255 255 256 257 258 257 256 253 251 250
287 294 299 299 295 302 303 295 284 278 282 285 283 283 283 285 287 287 285 284 284 283 283 281 280 278 276 274 271 267 263 260 258 257 257 257 257 257 256 254 252 250 248
282 287 291 294 295 297 299 299 296 288 286 285 285 286 285 285 288 288 288 286 285 285 286 286 285 282 280 277 273 270 266 261 259 258 257 256 256 256 255 253 253 249 248
284 287 292 292 296 297 294 294 293 292 290 287 287 288 287 289 290 290 289 287 286 286 287 287 286 286 284 281 276 271 268 265 261 259 258 256 256 255 254 254 253 251 248
286 289 292 293 293 293 294 293 294 292 292 289 288 288 289 289 290 291 291 289 288 286 286 287 286 286 287 285 281 276 271 266 263 261 260 259 257 256 256 255 253 251 248
283 286 289 289 289 293 292 290 288 289 293 294 294 292 292 293 292 292 293 292 291 289 288 289 289 286 285 284 285 283 277 272 267 263 259 258 258 257 256 255 252 249 247
287 288 289 290 288 288 291 289 285 286 289 291 293 295 294 294 292 292 292 290 291 289 288 289 289 290 288 285 283 281 285 282 276 269 263 260 257 255 254 254 251 249 247
292 290 290 288 287 286 286 287 284 283 285 288 291 294 295 295 296 294 291 289 288 288 286 285 285 284 286 288 288 285 281 280 281 277 271 265 262 257 255 253 250 247 246
294 294 294 292 287 284 286 287 283 282 284 285 287 289 291 293 295 295 292 289 286 284 283 282 283 284 283 284 286 287 289 286 280 276 274 269 266 264 255 250 246 242 233
295 295 296 295 290 286 286 285 282 282 283 283 284 284 285 289 292 293 290 288 289 282 278 281 282 281 282 281 281 280 281 283 288 291 277 265 261 257 253 243 231 227 226